Change the Weather History Date:

Wednesday, January 9, 2013

  Actual Average Record
Temperature  
Mean Temperature 29 °F -  
Max Temperature 37 °F 23 °F 53 °F (2002)
Min Temperature 19 °F 1 °F -28 °F (1977)
Degree Days  
Heating Degree Days 36    
Moisture  
Dew Point 26 °F    
Average Humidity 75    
Maximum Humidity 93    
Minimum Humidity 56    
Precipitation  
Precipitation 0.00 in - - ()
Sea Level Pressure  
Sea Level Pressure 30.08 in    
Wind  
Wind Speed 12 mph (West)    
Max Wind Speed 23 mph    
Max Gust Speed 33 mph    
Visibility 10 miles    
Events      
Averages and records for this station are not official NWS values.
T = Trace of Precipitation, MM = Missing Value Source: NWS Daily Summary

Daily Weather History Graph

Daily Weather History Graph

Search for Another Location

Airport or City:

Trip Planner

Search our weather history database for the weather conditions in past years. The results will help you decide how hot, cold, wet, or windy it might be!

Date:

Astronomy

Jan. 09, 2013 Rise Set
Actual Time 7:30 AM CST 4:33 PM CST
Civil Twilight 6:57 AM CST 5:06 PM CST
Nautical Twilight 6:21 AM CST 5:43 PM CST
Astronomical Twilight 5:46 AM CST 6:18 PM CST
Moon 5:10 AM CST (1/9) 2:35 PM CST (1/9)
Length of Visible Light 10h 08m
Length of Day
9h 03m
Waning Crescent, 6% of the Moon is Illuminated
Jan 9
Waning Crescent
Jan 11
New
Jan 18
First Quarter
Jan 26
Full
Feb 3
Last Quarter

Hourly Weather History & Observations

Time (CST) Temp. Windchill Dew Point Humidity Pressure Visibility Wind Dir Wind Speed Gust Speed Precip Events Conditions
12:15 AM 35.6 °F 28.0 °F 30.2 °F 81% 29.81 in 10.0 mi SSW 10.4 mph - N/A   Overcast
12:35 AM 35.6 °F 29.2 °F 30.2 °F 81% 29.81 in 10.0 mi SW 8.1 mph - N/A   Overcast
12:55 AM 35.6 °F 28.6 °F 32.0 °F 87% 29.81 in 10.0 mi SW 9.2 mph - N/A   Overcast
1:15 AM 35.6 °F 28.6 °F 32.0 °F 87% 29.81 in 10.0 mi SW 9.2 mph - N/A   Overcast
1:55 AM 37.4 °F 29.3 °F 32.0 °F 81% 29.82 in 10.0 mi West 12.7 mph - N/A   Overcast
2:15 AM 37.4 °F 29.8 °F 32.0 °F 81% 29.83 in 10.0 mi West 11.5 mph 16.1 mph N/A   Overcast
2:35 AM 35.6 °F 25.9 °F 30.2 °F 81% 29.84 in 10.0 mi West 16.1 mph 23.0 mph N/A   Overcast
2:55 AM 35.6 °F 27.5 °F 30.2 °F 81% 29.84 in 10.0 mi West 11.5 mph - N/A   Overcast
3:15 AM 35.6 °F 26.2 °F 30.2 °F 81% 29.84 in 10.0 mi West 15.0 mph 28.8 mph N/A   Overcast
3:35 AM 35.6 °F 24.5 °F 30.2 °F 81% 29.85 in 10.0 mi West 20.7 mph 29.9 mph N/A   Overcast
3:55 AM 33.8 °F 23.2 °F 30.2 °F 87% 29.86 in 10.0 mi West 17.3 mph 28.8 mph N/A   Overcast
4:15 AM 33.8 °F 22.5 °F 30.2 °F 87% 29.87 in 10.0 mi West 19.6 mph 25.3 mph N/A   Overcast
4:35 AM 33.8 °F 24.3 °F 30.2 °F 87% 29.87 in 10.0 mi West 13.8 mph 17.3 mph N/A   Overcast
4:55 AM 33.8 °F 25.3 °F 30.2 °F 87% 29.88 in 10.0 mi West 11.5 mph 16.1 mph N/A   Overcast
5:15 AM 33.8 °F 25.3 °F 28.4 °F 81% 29.89 in 10.0 mi West 11.5 mph - N/A   Mostly Cloudy
5:35 AM 33.8 °F 24.8 °F 28.4 °F 81% 29.89 in 10.0 mi West 12.7 mph 20.7 mph N/A   Scattered Clouds
5:55 AM 32.0 °F 23.6 °F 28.4 °F 87% 29.90 in 10.0 mi WSW 10.4 mph - N/A   Clear
6:15 AM 32.0 °F 22.5 °F 28.4 °F 87% 29.91 in 10.0 mi West 12.7 mph 19.6 mph N/A   Clear
6:35 AM 32.0 °F 23.0 °F 28.4 °F 87% 29.92 in 10.0 mi WSW 11.5 mph - N/A   Clear
6:55 AM 32.0 °F 24.2 °F 28.4 °F 87% 29.93 in 10.0 mi WSW 9.2 mph - N/A   Clear
7:15 AM 32.0 °F 23.0 °F 28.4 °F 87% 29.94 in 10.0 mi WSW 11.5 mph - N/A   Clear
7:35 AM 32.0 °F 22.5 °F 28.4 °F 87% 29.94 in 10.0 mi WSW 12.7 mph 17.3 mph N/A   Clear
7:55 AM 32.0 °F 22.1 °F 28.4 °F 87% 29.94 in 10.0 mi WSW 13.8 mph - N/A   Clear
8:15 AM 32.0 °F 22.1 °F 28.4 °F 87% 29.95 in 10.0 mi WSW 13.8 mph 20.7 mph N/A   Clear
8:35 AM 32.0 °F 22.5 °F 28.4 °F 87% 29.95 in 10.0 mi WSW 12.7 mph 18.4 mph N/A   Clear
8:55 AM 33.8 °F 22.8 °F 28.4 °F 81% 29.96 in 10.0 mi West 18.4 mph 24.2 mph N/A   Mostly Cloudy
9:15 AM 33.8 °F 22.8 °F 26.6 °F 75% 29.97 in 10.0 mi West 18.4 mph 24.2 mph N/A   Scattered Clouds
9:35 AM 33.8 °F 21.9 °F 26.6 °F 75% 29.97 in 10.0 mi West 21.9 mph 31.1 mph N/A   Scattered Clouds
9:55 AM 33.8 °F 23.9 °F 26.6 °F 75% 29.97 in 10.0 mi West 15.0 mph 31.1 mph N/A   Scattered Clouds
10:15 AM 35.6 °F 24.8 °F 26.6 °F 70% 29.98 in 10.0 mi West 19.6 mph 29.9 mph N/A   Clear
10:35 AM 35.6 °F 25.9 °F 26.6 °F 70% 30.00 in 10.0 mi West 16.1 mph 33.4 mph N/A   Clear
11:15 AM 35.6 °F 24.0 °F 26.6 °F 70% 30.01 in 10.0 mi West 23.0 mph 31.1 mph N/A   Scattered Clouds
11:35 AM 37.4 °F 27.8 °F 26.6 °F 65% 30.02 in 10.0 mi WNW 17.3 mph 28.8 mph N/A   Scattered Clouds
11:55 AM 37.4 °F 29.8 °F 26.6 °F 65% 30.03 in 10.0 mi West 11.5 mph 26.5 mph N/A   Clear
12:15 PM 37.4 °F 28.5 °F 26.6 °F 65% 30.04 in 10.0 mi West 15.0 mph 25.3 mph N/A   Clear
12:35 PM 37.4 °F 26.9 °F 24.8 °F 60% 30.04 in 10.0 mi West 20.7 mph 27.6 mph N/A   Clear
12:55 PM 37.4 °F 27.8 °F 24.8 °F 60% 30.07 in 10.0 mi West 17.3 mph 25.3 mph N/A   Clear
1:15 PM 37.4 °F 30.3 °F 26.6 °F 65% 30.07 in 10.0 mi West 10.4 mph 24.2 mph N/A   Scattered Clouds
1:35 PM 37.4 °F 27.8 °F 26.6 °F 65% 30.09 in 10.0 mi West 17.3 mph - N/A   Clear
1:55 PM 37.4 °F 27.5 °F 26.6 °F 65% 30.12 in 10.0 mi West 18.4 mph 23.0 mph N/A   Clear
2:15 PM 37.4 °F 27.2 °F 24.8 °F 60% 30.14 in 10.0 mi West 19.6 mph 27.6 mph N/A   Clear
2:35 PM 37.4 °F 27.5 °F 24.8 °F 60% 30.15 in 10.0 mi West 18.4 mph 25.3 mph N/A   Clear
2:55 PM 37.4 °F 28.2 °F 24.8 °F 60% 30.18 in 10.0 mi West 16.1 mph 26.5 mph N/A   Clear
3:15 PM 37.4 °F 26.9 °F 23.0 °F 56% 30.20 in 10.0 mi West 20.7 mph 26.5 mph N/A   Clear
3:35 PM 37.4 °F 28.2 °F 23.0 °F 56% 30.21 in 10.0 mi WNW 16.1 mph 24.2 mph N/A   Clear
3:55 PM 35.6 °F 27.1 °F 23.0 °F 60% 30.23 in 10.0 mi West 12.7 mph 17.3 mph N/A   Clear
4:15 PM 35.6 °F 26.6 °F 23.0 °F 60% 30.26 in 10.0 mi West 13.8 mph 28.8 mph N/A   Clear
4:35 PM 35.6 °F 28.0 °F 23.0 °F 60% 30.26 in 10.0 mi West 10.4 mph - N/A   Clear
4:55 PM 35.6 °F 29.2 °F 23.0 °F 60% 30.27 in 10.0 mi West 8.1 mph 16.1 mph N/A   Clear
5:15 PM 33.8 °F 26.4 °F 23.0 °F 65% 30.29 in 10.0 mi West 9.2 mph - N/A   Clear
5:55 PM 33.8 °F 24.8 °F 23.0 °F 65% 30.30 in 10.0 mi West 12.7 mph - N/A   Clear
6:15 PM 33.8 °F 24.8 °F 23.0 °F 65% 30.32 in 10.0 mi West 12.7 mph 17.3 mph N/A   Clear
6:35 PM 33.8 °F 25.8 °F 23.0 °F 65% 30.33 in 10.0 mi West 10.4 mph - N/A   Clear
6:55 PM 32.0 °F 24.2 °F 23.0 °F 69% 30.34 in 10.0 mi West 9.2 mph - N/A   Clear
7:15 PM 32.0 °F 25.6 °F 21.2 °F 64% 30.34 in 10.0 mi West 6.9 mph - N/A   Clear
7:35 PM 32.0 °F 26.4 °F 21.2 °F 64% 30.36 in 10.0 mi West 5.8 mph - N/A   Clear
7:55 PM 32.0 °F 27.5 °F 21.2 °F 64% 30.37 in 10.0 mi WSW 4.6 mph - N/A   Clear
8:15 PM 30.2 °F 24.3 °F 21.2 °F 69% 30.38 in 10.0 mi SW 5.8 mph - N/A   Clear
8:35 PM 30.2 °F 26.7 °F 21.2 °F 69% 30.39 in 10.0 mi WSW 3.5 mph - N/A   Clear
8:55 PM 28.4 °F - 21.2 °F 74% 30.39 in 10.0 mi Calm Calm - N/A   Clear
9:55 PM 23.0 °F - 19.4 °F 86% 30.40 in 10.0 mi Calm Calm - N/A   Clear
10:35 PM 23.0 °F - 19.4 °F 86% 30.40 in 10.0 mi Calm Calm - N/A   Clear
10:55 PM 21.2 °F - 19.4 °F 93% 30.40 in 10.0 mi Calm Calm - N/A   Clear
11:15 PM 21.2 °F - 17.6 °F 86% 30.39 in 10.0 mi Calm Calm - N/A   Clear
11:35 PM 21.2 °F - 17.6 °F 86% 30.39 in 10.0 mi Calm Calm - N/A   Clear
11:55 PM 19.4 °F - 17.6 °F 93% 30.38 in 10.0 mi Calm Calm - N/A   Clear